TimeCST,TemperatureF,Dew PointF,Humidity,Sea Level PressureIn,VisibilityMPH,Wind Direction,Wind SpeedMPH,Gust SpeedMPH,PrecipitationIn,Events,Conditions,WindDirDegrees,DateUTC
12:54 AM,6.1,3.0,87,29.99,10.0,Calm,Calm,-,N/A,,Mostly Cloudy,0,2013-02-05 06:54:00
1:54 AM,3.0,-0.0,87,29.97,10.0,SSE,4.6,-,N/A,,Clear,160,2013-02-05 07:54:00
2:54 AM,5.0,1.0,84,29.96,10.0,Calm,Calm,-,N/A,,Scattered Clouds,0,2013-02-05 08:54:00
3:54 AM,5.0,1.0,84,29.94,10.0,Calm,Calm,-,N/A,,Mostly Cloudy,0,2013-02-05 09:54:00
4:54 AM,7.0,1.9,80,29.94,10.0,South,4.6,-,N/A,,Overcast,180,2013-02-05 10:54:00
5:28 AM,8.6,5.0,85,29.88,2.0,South,3.5,-,0.00,Snow,Light Snow,170,2013-02-05 11:28:00
5:48 AM,10.4,6.8,85,29.88,1.2,SSE,4.6,-,0.00,Snow,Light Snow,160,2013-02-05 11:48:00
5:54 AM,10.9,7.0,84,29.92,1.2,SSE,5.8,-,0.01,Snow,Light Snow,160,2013-02-05 11:54:00
6:46 AM,15.8,12.2,86,29.87,1.2,South,4.6,-,0.01,Snow,Light Snow,170,2013-02-05 12:46:00
6:54 AM,15.1,12.0,88,29.90,1.2,South,6.9,-,0.01,Snow,Light Snow,170,2013-02-05 12:54:00
7:10 AM,15.8,14.0,93,29.86,8.0,South,6.9,-,0.00,,Overcast,180,2013-02-05 13:10:00
7:54 AM,17.1,14.0,88,29.89,8.0,SSW,8.1,-,0.00,,Overcast,200,2013-02-05 13:54:00
8:54 AM,19.0,15.1,85,29.87,7.0,South,8.1,-,N/A,,Mostly Cloudy,180,2013-02-05 14:54:00
9:54 AM,23.0,19.0,85,29.86,8.0,SSW,11.5,-,N/A,,Overcast,210,2013-02-05 15:54:00
10:54 AM,27.0,21.0,78,29.86,8.0,WSW,9.2,-,N/A,,Overcast,240,2013-02-05 16:54:00
11:54 AM,28.0,21.9,78,29.85,2.0,WSW,9.2,-,0.00,Snow,Light Snow,240,2013-02-05 17:54:00
12:17 PM,28.4,23.0,80,29.81,1.8,WSW,12.7,-,0.00,Snow,Light Snow,250,2013-02-05 18:17:00
12:33 PM,26.6,23.0,86,29.80,1.0,West,13.8,-,0.00,Snow,Light Snow,260,2013-02-05 18:33:00
12:40 PM,26.6,23.0,86,29.80,0.5,West,10.4,-,0.01,Snow,Snow,260,2013-02-05 18:40:00
12:54 PM,27.0,24.1,89,29.85,0.5,West,9.2,-,0.02,Snow,Snow,260,2013-02-05 18:54:00
1:24 PM,28.4,24.8,86,29.81,0.8,West,12.7,-,0.02,Snow,Light Snow,260,2013-02-05 19:24:00
1:37 PM,28.4,24.8,86,29.81,2.0,West,11.5,-,0.02,Snow,Light Snow,260,2013-02-05 19:37:00
1:43 PM,28.4,24.8,86,29.81,3.0,West,12.7,-,0.02,Snow,Light Snow,260,2013-02-05 19:43:00
1:54 PM,28.9,24.1,82,29.85,5.0,West,13.8,-,0.02,Snow,Light Snow,260,2013-02-05 19:54:00
2:09 PM,28.4,24.8,86,29.82,2.0,West,9.2,-,0.00,Snow,Light Snow,270,2013-02-05 20:09:00
2:17 PM,28.4,24.8,86,29.83,1.0,West,12.7,18.4,0.00,Snow,Light Snow,270,2013-02-05 20:17:00
2:28 PM,28.4,24.8,86,29.84,3.0,West,10.4,-,0.00,Snow,Light Snow,280,2013-02-05 20:28:00
2:54 PM,28.9,24.1,82,29.89,6.0,West,13.8,-,0.00,,Haze,280,2013-02-05 20:54:00
3:54 PM,28.9,23.0,78,29.92,7.0,NW,15.0,-,N/A,,Overcast,310,2013-02-05 21:54:00
4:54 PM,28.9,23.0,78,29.95,9.0,WNW,9.2,-,N/A,,Overcast,290,2013-02-05 22:54:00
5:54 PM,30.0,24.1,79,29.98,10.0,WNW,6.9,-,N/A,,Overcast,290,2013-02-05 23:54:00
6:54 PM,30.0,24.1,79,30.01,10.0,WNW,6.9,-,N/A,,Overcast,300,2013-02-06 00:54:00
7:54 PM,30.0,24.1,79,30.04,10.0,NW,4.6,-,N/A,,Overcast,310,2013-02-06 01:54:00
8:54 PM,30.9,23.0,72,30.05,10.0,NW,8.1,-,N/A,,Overcast,310,2013-02-06 02:54:00
9:54 PM,30.0,21.9,72,30.08,10.0,NNW,6.9,-,N/A,,Overcast,340,2013-02-06 03:54:00
10:15 PM,30.2,19.4,64,30.06,10.0,North,12.7,-,N/A,,Overcast,350,2013-02-06 04:15:00
10:54 PM,28.9,19.9,69,30.10,10.0,North,8.1,-,N/A,,Overcast,360,2013-02-06 04:54:00
11:54 PM,28.0,19.0,69,30.12,10.0,North,8.1,-,N/A,,Overcast,10,2013-02-06 05:54:00